When you browse on this site, cookies collect data to enhance your experience and personalize the content and advertising you see.
Visit our Privacy Policy to learn more. By continuing to use the site, you agree to this use of cookies and data.
  • In Hungary
  • List of Countries
  • For 7 days
  • Water Temperature
  • Weather Map
  • News
  • Weather Widgets
  • user-avatar
    Login

    Hourly Weather Yeghegnadzor

    Today, 4 June, Thursday

    Time Temperature Precipitation Wind Pressure Humidity
    00:00 +17°C° 0 mm 2 mps 649 mmHg 60%
    01:00 +16°C° 0 mm 2 mps 649 mmHg 62%
    02:00 +16°C° 0 mm 2 mps 649 mmHg 64%
    03:00 +15°C° 0 mm 1 mps 649 mmHg 64%
    04:00 +16°C° 0 mm 1 mps 650 mmHg 62%
    05:00 +19°C° 0 mm 1 mps 650 mmHg 61%
    06:00 +20°C° 0 mm 1 mps 651 mmHg 60%
    07:00 +20°C° 0 mm 2 mps 651 mmHg 54%
    08:00 +23°C° 0 mm 2 mps 652 mmHg 47%
    09:00 +25°C° 0 mm 3 mps 652 mmHg 41%
    10:00 +26°C° 0 mm 3 mps 652 mmHg 38%
    11:00 +27°C° 0 mm 4 mps 652 mmHg 35%
    12:00 +27°C° 0 mm 4 mps 653 mmHg 32%
    13:00 +28°C° 0 mm 4 mps 652 mmHg 30%
    14:00 +28°C° 0 mm 4 mps 652 mmHg 29%
    15:00 +28°C° 0 mm 4 mps 652 mmHg 28%
    16:00 +28°C° 0 mm 4 mps 652 mmHg 32%
    17:00 +27°C° 0 mm 4 mps 652 mmHg 36%
    18:00 +26°C° 0 mm 4 mps 652 mmHg 39%
    19:00 +24°C° 0 mm 3 mps 652 mmHg 42%
    20:00 +20°C° 0 mm 3 mps 652 mmHg 45%
    21:00 +18°C° 0 mm 2 mps 652 mmHg 47%
    22:00 +18°C° 0 mm 2 mps 652 mmHg 48%
    23:00 +17°C° 0 mm 2 mps 653 mmHg 49%

    Tomorrow, 5 June, Friday

    Time Temperature Precipitation Wind Pressure Humidity
    00:00 +16°C° 0 mm 1 mps 653 mmHg 49%
    01:00 +16°C° 0 mm 1 mps 653 mmHg 51%
    02:00 +15°C° 0 mm 1 mps 653 mmHg 52%
    03:00 +15°C° 0 mm 1 mps 653 mmHg 53%
    04:00 +16°C° 0 mm 1 mps 653 mmHg 53%
    05:00 +18°C° 0 mm 1 mps 654 mmHg 53%
    06:00 +19°C° 0 mm 1 mps 655 mmHg 53%
    07:00 +21°C° 0 mm 1 mps 655 mmHg 48%
    08:00 +22°C° 0 mm 1 mps 655 mmHg 42%
    09:00 +24°C° 0 mm 1 mps 655 mmHg 36%
    10:00 +24°C° 0 mm 2 mps 655 mmHg 34%
    11:00 +25°C° 0 mm 3 mps 655 mmHg 33%
    12:00 +26°C° 0 mm 4 mps 655 mmHg 31%
    13:00 +26°C° 0 mm 4 mps 655 mmHg 31%
    14:00 +26°C° 0 mm 3 mps 655 mmHg 30%
    15:00 +26°C° 0 mm 3 mps 655 mmHg 30%
    16:00 +26°C° 0 mm 3 mps 655 mmHg 33%
    17:00 +25°C° 0 mm 2 mps 655 mmHg 36%
    18:00 +25°C° 0 mm 1 mps 655 mmHg 39%
    19:00 +23°C° 0 mm 2 mps 655 mmHg 45%
    20:00 +20°C° 0 mm 2 mps 655 mmHg 50%
    21:00 +18°C° 0 mm 3 mps 655 mmHg 56%
    22:00 +17°C° 0 mm 3 mps 655 mmHg 57%
    23:00 +17°C° 0 mm 2 mps 655 mmHg 57%

    Day after tomorrow, 6 June, Saturday

    Time Temperature Precipitation Wind Pressure Humidity
    00:00 +17°C° 0 mm 2 mps 655 mmHg 58%
    01:00 +17°C° 0 mm 2 mps 655 mmHg 59%
    02:00 +16°C° 0 mm 2 mps 655 mmHg 60%
    03:00 +16°C° 0 mm 1 mps 655 mmHg 60%
    04:00 +16°C° 0.2 mm 1 mps 655 mmHg 62%
    05:00 +18°C° 0.2 mm 1 mps 655 mmHg 63%
    06:00 +18°C° 0.2 mm 1 mps 656 mmHg 65%
    07:00 +20°C° 0.5 mm 1 mps 656 mmHg 59%
    08:00 +21°C° 0.5 mm 1 mps 657 mmHg 54%
    09:00 +23°C° 0.5 mm 1 mps 657 mmHg 48%
    10:00 +23°C° 0.7 mm 1 mps 657 mmHg 46%
    11:00 +24°C° 0.7 mm 2 mps 657 mmHg 44%
    12:00 +25°C° 0.7 mm 2 mps 657 mmHg 42%
    13:00 +22°C° 1.1 mm 3 mps 656 mmHg 48%
    14:00 +21°C° 1.1 mm 3 mps 655 mmHg 54%
    15:00 +20°C° 1.1 mm 3 mps 654 mmHg 61%
    16:00 +20°C° 0.3 mm 3 mps 655 mmHg 60%
    17:00 +20°C° 0.3 mm 3 mps 655 mmHg 59%
    18:00 +20°C° 0.3 mm 3 mps 655 mmHg 59%
    19:00 +18°C° 0 mm 3 mps 656 mmHg 64%
    20:00 +17°C° 0 mm 2 mps 656 mmHg 70%
    21:00 +15°C° 0 mm 2 mps 656 mmHg 76%
    22:00 +15°C° 0 mm 2 mps 655 mmHg 76%
    23:00 +14°C° 0 mm 2 mps 655 mmHg 76%

    7 June, Sunday

    Time Temperature Precipitation Wind Pressure Humidity
    00:00 +14°C° 0 mm 2 mps 655 mmHg 75%
    01:00 +14°C° 0 mm 2 mps 655 mmHg 76%
    02:00 +13°C° 0 mm 2 mps 655 mmHg 77%
    03:00 +13°C° 0 mm 2 mps 655 mmHg 77%
    04:00 +14°C° 0 mm 2 mps 655 mmHg 75%
    05:00 +15°C° 0 mm 2 mps 655 mmHg 72%
    06:00 +16°C° 0 mm 1 mps 655 mmHg 69%
    07:00 +18°C° 0 mm 1 mps 656 mmHg 64%
    08:00 +20°C° 0 mm 1 mps 656 mmHg 58%
    09:00 +22°C° 0 mm 1 mps 657 mmHg 53%
    10:00 +22°C° 0.1 mm 1 mps 657 mmHg 51%
    11:00 +23°C° 0.1 mm 1 mps 657 mmHg 50%
    12:00 +24°C° 0.1 mm 2 mps 657 mmHg 48%
    13:00 +24°C° 0.3 mm 1 mps 656 mmHg 48%
    14:00 +25°C° 0.3 mm 1 mps 656 mmHg 48%
    15:00 +25°C° 0.3 mm 1 mps 656 mmHg 48%
    16:00 +24°C° 0.2 mm 2 mps 656 mmHg 50%
    17:00 +24°C° 0.2 mm 2 mps 655 mmHg 53%
    18:00 +24°C° 0.2 mm 2 mps 655 mmHg 56%
    19:00 +21°C° 0 mm 2 mps 655 mmHg 61%
    20:00 +19°C° 0 mm 2 mps 655 mmHg 66%
    21:00 +17°C° 0 mm 2 mps 655 mmHg 72%
    22:00 +16°C° 0 mm 2 mps 655 mmHg 72%
    23:00 +16°C° 0 mm 2 mps 654 mmHg 71%

    8 June, Monday

    Time Temperature Precipitation Wind Pressure Humidity
    00:00 +15°C° 0 mm 2 mps 654 mmHg 71%
    01:00 +15°C° 0 mm 2 mps 654 mmHg 71%
    02:00 +15°C° 0 mm 2 mps 654 mmHg 70%
    03:00 +14°C° 0 mm 2 mps 653 mmHg 70%
    04:00 +15°C° 0 mm 2 mps 654 mmHg 66%
    05:00 +16°C° 0 mm 1 mps 654 mmHg 63%
    06:00 +18°C° 0 mm 1 mps 654 mmHg 59%
    07:00 +20°C° 0 mm 1 mps 655 mmHg 53%
    08:00 +22°C° 0 mm 1 mps 655 mmHg 46%
    09:00 +24°C° 0 mm 1 mps 655 mmHg 40%
    10:00 +25°C° 0 mm 1 mps 656 mmHg 37%
    11:00 +26°C° 0 mm 1 mps 656 mmHg 35%
    12:00 +27°C° 0 mm 1 mps 656 mmHg 33%
    13:00 +27°C° 0 mm 1 mps 655 mmHg 33%
    14:00 +28°C° 0 mm 1 mps 655 mmHg 33%
    15:00 +28°C° 0 mm 1 mps 655 mmHg 33%
    16:00 +27°C° 0 mm 1 mps 654 mmHg 37%
    17:00 +27°C° 0 mm 1 mps 654 mmHg 41%
    18:00 +26°C° 0 mm 1 mps 654 mmHg 46%
    19:00 +24°C° 0 mm 2 mps 654 mmHg 51%
    20:00 +20°C° 0 mm 2 mps 654 mmHg 56%
    21:00 +18°C° 0 mm 2 mps 653 mmHg 62%
    22:00 +18°C° 0 mm 2 mps 653 mmHg 62%
    23:00 +17°C° 0 mm 2 mps 653 mmHg 61%

    9 June, Tuesday

    Time Temperature Precipitation Wind Pressure Humidity
    00:00 +17°C° 0 mm 2 mps 653 mmHg 61%
    01:00 +16°C° 0 mm 2 mps 653 mmHg 60%
    02:00 +16°C° 0 mm 2 mps 653 mmHg 59%
    03:00 +15°C° 0 mm 2 mps 652 mmHg 58%
    04:00 +16°C° 0 mm 2 mps 653 mmHg 56%
    05:00 +17°C° 0 mm 2 mps 653 mmHg 55%
    06:00 +18°C° 0 mm 2 mps 654 mmHg 54%
    07:00 +21°C° 0 mm 1 mps 654 mmHg 46%
    08:00 +23°C° 0 mm 1 mps 655 mmHg 39%
    09:00 +25°C° 0 mm 1 mps 655 mmHg 32%
    10:00 +26°C° 0 mm 1 mps 656 mmHg 30%
    11:00 +27°C° 0 mm 1 mps 656 mmHg 29%
    12:00 +28°C° 0 mm 1 mps 656 mmHg 27%
    13:00 +28°C° 0 mm 2 mps 655 mmHg 27%
    14:00 +29°C° 0 mm 2 mps 655 mmHg 27%
    15:00 +29°C° 0 mm 2 mps 655 mmHg 27%
    16:00 +28°C° 0 mm 2 mps 655 mmHg 33%
    17:00 +27°C° 0 mm 2 mps 654 mmHg 38%
    18:00 +26°C° 0 mm 2 mps 654 mmHg 44%
    19:00 +24°C° 0 mm 2 mps 654 mmHg 50%
    20:00 +20°C° 0 mm 2 mps 654 mmHg 56%
    21:00 +18°C° 0 mm 2 mps 654 mmHg 62%
    22:00 +18°C° 0 mm 2 mps 654 mmHg 61%
    23:00 +17°C° 0 mm 2 mps 654 mmHg 60%
    Show more